[[{"header":{"parameterUnit":"m.s-1","parameterCategory":1,"la1":30.2992,"la2":30.254,"lo1":-89.0895,"lo2":-89.0443,"dy":0.0025,"dx":0.0025,"nx":19,"ny":19,"refTime":"2026-05-18T21:00:00:Z","depth":0,"parameterNumber":2,"parameterNumberName":"U-component_of_WINDS"},"data":[0,0,0,-4.2518,-4.252,-4.2635,-4.2635,-4.2784,-4.2785,0,0,0,0,0,0,0,0,0,0,0,-4.2485,-4.2486,-4.2518,-4.2521,-4.2635,-4.2635,-4.2784,-4.2785,0,0,0,0,0,0,0,0,0,0,0,-4.2485,-4.2486,-4.2487,-4.2521,-4.2635,-4.2636,-4.2784,-4.2696,0,0,0,0,0,0,0,0,0,0,-4.2585,-4.2556,-4.2486,-4.2487,-4.2522,-4.2635,-4.2636,-4.2692,-4.2702,-4.2733,0,-4.2761,0,-4.2776,-4.2796,-4.2796,0,0,0,-4.252,-4.2547,-4.2577,-4.2487,-4.2523,-4.2635,-4.2583,-4.2698,-4.2709,-4.2746,-4.2763,-4.2769,-4.2778,-4.2797,-4.2797,-4.2982,-4.2983,0,0,-4.2513,-4.2506,-4.257,-4.2585,-4.2567,-4.2579,-4.2587,-4.2704,-4.2722,-4.2764,-4.2772,-4.2781,-4.2798,-4.2799,-4.2981,-4.2982,0,0,0,-4.2496,-4.2502,-4.2529,-4.2579,-4.2599,-4.2583,-4.2591,-4.2717,-4.2727,-4.2774,-4.2783,-4.2798,-4.28,-4.298,-4.2981,-4.3019,0,0,0,-4.2492,-4.2492,-4.2526,-4.2523,-4.2597,-4.266,-4.2602,-4.2719,-4.2732,-4.2782,-4.2798,-4.2802,-4.2979,-4.2981,-4.3015,-4.3037,0,0,0,-4.2477,-4.249,-4.2507,-4.2522,-4.2571,-4.2658,-4.2674,-4.2722,-4.2737,-4.2796,-4.2802,-4.2978,-4.298,-4.3013,-4.3032,-4.3083,0,0,0,-4.2459,-4.2538,-4.2507,-4.2599,-4.257,-4.268,-4.2673,-4.2756,-4.2811,-4.2799,-4.2979,-4.2981,-4.3012,-4.3029,-4.308,-4.3124,-4.3141,0,0,-4.2554,-4.2549,-4.2604,-4.258,-4.2693,-4.2664,-4.2783,-4.284,-4.2852,-4.2938,-4.2943,-4.3016,-4.3032,-4.3082,-4.3246,-4.326,0,0,0,-4.2631,-4.267,-4.2702,-4.2754,-4.28,-4.2842,-4.2881,-4.2903,-4.2976,-4.2895,-4.305,-4.3059,-4.3089,-4.311,-4.3122,-4.3148,-4.2991,-4.2991,-4.2991,-4.2754,-4.2766,-4.2857,-4.2884,-4.2935,-4.2976,-4.3019,-4.3055,-4.3052,-4.3089,-4.3113,-4.3211,-4.3236,-4.3245,-4.3272,-4.3139,-4.3139,-4.3139,-4.3139,-4.2894,-4.295,-4.2946,-4.3033,-4.3046,-4.3119,-4.3163,-4.3158,-4.3228,-4.3193,-4.322,-4.3178,-4.326,-4.3284,-4.3142,-4.3141,-4.3141,-4.3141,-4.3141,-4.2974,-4.3004,-4.3029,-4.3107,-4.3166,-4.3191,-4.3259,-4.3269,-4.3278,-4.3305,-4.3332,-4.3332,-4.3332,-4.3318,-4.3318,-4.3318,-4.3319,-4.3319,-4.3319,-4.3047,-4.3075,-4.3131,-4.3188,-4.3223,-4.3272,-4.3316,-4.3351,-4.3393,-4.3395,-4.3395,-4.3388,-4.3266,-4.3234,-4.3324,-4.3324,-4.3323,-4.3322,-4.3322,-4.3182,-4.3153,-4.3239,-4.3275,-4.3344,-4.3402,-4.3415,-4.3486,-4.3517,-4.3551,-4.354,-4.3448,-4.3443,-4.3433,-4.3407,-4.3537,-4.3537,-4.3537,-4.3537,-4.3249,-4.3248,-4.3339,-4.3396,-4.3453,-4.3473,-4.3571,-4.3607,-4.3639,-4.366,-4.3643,-4.361,-4.36,-4.36,-4.3587,-4.3563,-4.3729,-4.373,-4.373,-4.3332,-4.3338,-4.3418,-4.345,-4.3505,-4.3552,-4.3645,-4.3711,-4.3742,-4.3738,-4.3676,-4.3668,-4.3614,-4.3596,-4.3588,-4.3567,-4.3523,0,0]},{"header":{"parameterUnit":"m.s-1","parameterCategory":1,"la1":30.2992,"la2":30.254,"lo1":-89.0895,"lo2":-89.0443,"dy":0.0025,"dx":0.0025,"nx":19,"ny":19,"refTime":"2026-05-18T21:00:00:Z","depth":0,"parameterNumber":3,"parameterNumberName":"V-component_of_WINDS"},"data":[0,0,0,3.4944,3.4944,3.4974,3.4974,3.5012,3.5012,0,0,0,0,0,0,0,0,0,0,0,3.4935,3.4936,3.4943,3.4944,3.4974,3.4974,3.5012,3.5012,0,0,0,0,0,0,0,0,0,0,0,3.4935,3.4935,3.4936,3.4944,3.4974,3.4974,3.5012,3.4989,0,0,0,0,0,0,0,0,0,0,3.4961,3.4954,3.4935,3.4936,3.4944,3.4974,3.4974,3.4988,3.4991,3.4999,0,3.5006,0,3.501,3.5015,3.5015,0,0,0,3.4944,3.4951,3.4959,3.4936,3.4945,3.4974,3.496,3.499,3.4992,3.5002,3.5007,3.5008,3.5011,3.5015,3.5015,3.5065,3.5066,0,0,3.4942,3.4941,3.4957,3.4961,3.4957,3.4959,3.4961,3.4991,3.4996,3.5007,3.5009,3.5011,3.5015,3.5016,3.5065,3.5066,0,0,0,3.4938,3.494,3.4946,3.4959,3.4965,3.496,3.4962,3.4995,3.4997,3.501,3.5012,3.5016,3.5016,3.5065,3.5065,3.5078,0,0,0,3.4937,3.4937,3.4946,3.4945,3.4964,3.498,3.4965,3.4995,3.4999,3.5012,3.5016,3.5016,3.5065,3.5065,3.5077,3.5084,0,0,0,3.4933,3.4937,3.4941,3.4945,3.4958,3.498,3.4984,3.4996,3.5,3.5015,3.5017,3.5064,3.5065,3.5076,3.5083,3.5098,0,0,0,3.4929,3.4951,3.4941,3.4967,3.4958,3.4987,3.4984,3.5006,3.502,3.5016,3.5065,3.5065,3.5076,3.5082,3.5097,3.5112,3.5117,0,0,3.4956,3.4954,3.4969,3.4962,3.4993,3.4983,3.5016,3.503,3.5032,3.5054,3.5055,3.5077,3.5083,3.5098,3.5147,3.5151,0,0,0,3.4978,3.4989,3.4997,3.5011,3.5023,3.5033,3.5042,3.5048,3.5067,3.5043,3.5086,3.509,3.5099,3.5106,3.5109,3.5118,3.5068,3.5068,3.5068,3.5015,3.5017,3.5043,3.5049,3.5062,3.5072,3.5083,3.5092,3.5089,3.5099,3.5106,3.5136,3.5144,3.5147,3.5155,3.5113,3.5113,3.5113,3.5113,3.5056,3.5073,3.507,3.5093,3.5096,3.5115,3.5125,3.5123,3.5142,3.513,3.5138,3.5127,3.5152,3.5159,3.5114,3.5114,3.5114,3.5114,3.5114,3.5082,3.5091,3.5097,3.5118,3.5134,3.5138,3.5157,3.5158,3.5158,3.5166,3.5175,3.5174,3.5175,3.517,3.517,3.517,3.517,3.517,3.517,3.5107,3.5114,3.513,3.5144,3.5154,3.5166,3.5176,3.5185,3.5196,3.5195,3.5195,3.5192,3.5153,3.5144,3.5172,3.5172,3.5171,3.5171,3.5171,3.5151,3.5142,3.5166,3.5176,3.5193,3.5209,3.521,3.5229,3.5236,3.5246,3.5241,3.5211,3.521,3.5207,3.5199,3.524,3.524,3.524,3.524,3.5175,3.5173,3.52,3.5215,3.523,3.5233,3.5261,3.5269,3.5275,3.528,3.5274,3.5264,3.526,3.526,3.5256,3.525,3.5302,3.5302,3.5302,3.5203,3.5203,3.5227,3.5234,3.5247,3.5259,3.5286,3.5303,3.5308,3.5304,3.5284,3.5281,3.5265,3.5259,3.5256,3.525,3.5237,0,0]}]]